Location: York
(31.8935°S, 116.7682°E)
Time: 23:55:32
(UTC+08:00)

Envisat - Pass Details

Date: 18 May 2021
Orbit: 764 x 766 km, 98.1° (Epoch: 14 June)

Event Time Altitude Azimuth Distance (km) Brightness Sun altitude
Rises 18:26:11 0° 182° (S) 3,264 6.1 -13.7°
Reaches altitude 10° 18:28:48 10° 193° (SSW) 2,330 5.5 -14.2°
Maximum altitude 18:33:06 28° 250° (WSW) 1,428 5.0 -15.1°
Drops below altitude 10° 18:37:22 10° 308° (NW) 2,307 6.5 -16.0°
Sets 18:39:57 0° 319° (NW) 3,225 7.2 -16.5°
